[[{"header":{"parameterUnit":"m.s-1","parameterCategory":1,"la1":30.2991,"la2":30.254,"lo1":-89.0895,"lo2":-89.0444,"dy":0.0017,"dx":0.0017,"nx":28,"ny":28,"refTime":"2025-01-16T09:00:00:Z","depth":0,"parameterNumber":2,"parameterNumberName":"U-component_of_WINDS"},"data":[0,0,0,0,0,0,0,0,0,0,0,0,0,0,0,0,0,0,0,0,0,0,0,0,0,0,0,0,0,0,0,0,0,0,0,0,0,0,0,0,0,0,0,0,0,0,0,0,0,0,0,0,0,0,0,0,0,0,-1.0063,-1.0064,0,-1.0112,-1.0113,-1.0113,-1.003,-1.0027,-1.0024,-1.0021,-1.0078,-1.0082,-1.0086,0,0,0,0,0,0,0,0,0,0,0,0,0,-0.9903,-0.9907,-1.0063,-1.0064,-1.0064,-1.0112,-1.0113,-1.0113,-1.003,-1.0027,-1.0023,-1.002,-1.0077,-1.0082,-1.0087,0,0,0,0,0,0,0,0,0,0,0,0,0,-0.9965,-0.9908,-1.0063,-1.0028,-1.0026,-1.0112,-1.0113,-1.0114,-1.0031,-1.0027,-1.0022,-1.0018,-1.0075,-1.0081,-1.0087,-1.0212,0,0,-1.0107,-1.0109,0,0,0,0,0,0,0,0,-0.9962,-0.9971,-1.0033,-1.0031,-1.0028,-1.006,-1.0077,-1.0147,-1.0032,-1.0029,-1.0021,-1.0016,-1.0076,-1.0082,-1.0101,-1.0214,-1.0217,-1.0107,-1.0111,-1.0114,-1.0115,0,0,0,0,0,0,0,-0.9957,-0.9968,-1.0083,-1.0034,-1.0031,-1.0012,-1.0016,-1.009,-1.0076,-1.0029,-1.0023,-1.003,-1.0074,-1.0095,-1.0102,-1.0217,-1.0107,-1.0112,-1.0116,-1.0119,-1.0437,-1.0441,0,0,0,0,0,0,-0.9956,-0.9965,-1.0081,-1.0084,-0.9983,-1.0019,-1.0023,-1.0054,-1.0075,-1.0074,-1.0033,-1.0026,-1.0086,-1.0094,-1.0103,-1.0252,-1.0114,-1.0119,-1.0123,-1.0432,-1.0438,-1.0443,0,0,0,0,0,0,-0.9953,-0.9968,-1.0079,-1.0023,-1.0036,-1.0026,-1.0062,-1.0058,-1.0078,-1.0078,-1.0076,-1.0057,-1.0083,-1.0094,-1.0185,-1.0252,-1.0122,-1.0128,-1.0427,-1.0434,-1.044,-1.0548,0,0,0,0,0,0,-0.9949,-0.9967,-1.0013,-1.0025,-1.0039,-1.0159,-1.0066,-1.0062,-1.0089,-1.0079,-1.01,-1.0099,-1.0081,-1.0176,-1.0191,-1.0259,-1.0133,-1.0421,-1.043,-1.0438,-1.0539,-1.0558,-1.0575,0,0,0,0,0,-0.9944,-1.0042,-1.0015,-1.003,-1.0096,-1.0163,-1.0171,-1.0146,-1.0094,-1.0141,-1.0141,-1.0099,-1.0242,-1.0186,-1.0203,-1.0273,-1.0416,-1.0427,-1.0437,-1.0531,-1.0554,-1.0574,0,0,0,0,0,0,-1.0041,-1.0043,-1.0014,-1.0118,-1.0141,-1.0148,-1.0207,-1.0172,-1.0211,-1.0201,-1.017,-1.0175,-1.0273,-1.0281,-1.022,-1.0395,-1.0321,-1.0335,-1.0386,-1.0409,-1.0426,-1.0424,-1.0138,0,0,0,0,0,-1.0074,-1.0126,-1.0126,-1.0219,-1.0231,-1.0217,-1.0246,-1.0224,-1.0247,-1.0257,-1.0263,-1.0289,-1.034,-1.0374,-1.042,-1.0538,-1.0543,-1.0595,-1.0613,-1.0627,-1.0641,-1.0706,-1.073,-1.0478,-1.0478,-1.0477,0,0,-1.0144,-1.0152,-1.0187,-1.0239,-1.0253,-1.0311,-1.0226,-1.029,-1.0333,-1.0267,-1.0353,-1.0359,-1.0385,-1.0491,-1.0537,-1.0501,-1.0712,-1.0641,-1.0653,-1.0659,-1.072,-1.0744,-1.0765,-1.0485,-1.0483,-1.0482,0,0,-1.0302,-1.0311,-1.039,-1.0407,-1.0429,-1.0419,-1.0438,-1.0451,-1.0452,-1.0537,-1.0489,-1.054,-1.0628,-1.0649,-1.0672,-1.0836,-1.08,-1.0852,-1.0948,-1.1011,-1.1031,-1.1049,-1.111,-1.1132,-1.0865,-1.0866,-1.0866,0,-1.0387,-1.0469,-1.0436,-1.0503,-1.0528,-1.0469,-1.055,-1.0568,-1.0606,-1.0625,-1.0582,-1.0691,-1.0705,-1.0816,-1.0856,-1.0875,-1.0898,-1.0851,-1.1031,-1.1048,-1.1064,-1.1122,-1.1145,-1.0872,-1.0871,-1.0871,-1.087,0,-1.0574,-1.0631,-1.0693,-1.0729,-1.076,-1.0834,-1.0815,-1.0851,-1.0826,-1.0821,-1.091,-1.0924,-1.0973,-1.0996,-1.0974,-1.1105,-1.1081,-1.1035,-1.0961,-1.1095,-1.1149,-1.1171,-1.0881,-1.0879,-1.0877,-1.0875,0,0,-1.0796,-1.0812,-1.0835,-1.0851,-1.0871,-1.0917,-1.0988,-1.1034,-1.1067,-1.1094,-1.1156,-1.1231,-1.1188,-1.1213,-1.1192,-1.1248,-1.1381,-1.1195,-1.1195,-1.1232,-1.1528,-1.1565,-1.1591,-1.1355,-1.1359,-1.1362,-1.1527,0,-1.0955,-1.1076,-1.1049,-1.117,-1.1224,-1.1168,-1.1231,-1.1251,-1.1248,-1.1295,-1.1292,-1.1347,-1.1285,-1.1301,-1.1353,-1.1353,-1.144,-1.1341,-1.1415,-1.1418,-1.1413,-1.1619,-1.1658,-1.1814,-1.1548,-1.1551,-1.1554,0,-1.1156,-1.119,-1.1316,-1.1328,-1.135,-1.1406,-1.1447,-1.1491,-1.1514,-1.1508,-1.1536,-1.1504,-1.1577,-1.15,-1.1602,-1.1535,-1.1563,-1.1568,-1.1573,-1.1582,-1.1496,-1.1637,-1.1862,-1.1887,-1.1586,-1.1584,-1.1581,0,-1.131,-1.1386,-1.1472,-1.1487,-1.1502,-1.1544,-1.1553,-1.157,-1.16,-1.1635,-1.1655,-1.1699,-1.1724,-1.176,-1.1742,-1.1686,-1.1849,-1.1769,-1.1848,-1.1849,-1.1888,-1.1886,-1.2124,-1.1901,-1.1901,-1.19,-1.19,0,-1.1491,-1.1572,-1.1541,-1.1594,-1.1683,-1.1651,-1.174,-1.1742,-1.1759,-1.1813,-1.1766,-1.1819,-1.179,-1.1841,-1.1827,-1.1915,-1.1926,-1.1926,-1.1922,-1.1932,-1.1932,-1.1953,-1.1943,-1.1906,-1.1905,-1.1904,-1.1903,0,-1.1679,-1.1661,-1.1752,-1.1758,-1.1761,-1.1827,-1.1833,-1.1884,-1.1876,-1.1945,-1.196,-1.195,-1.2007,-1.1991,-1.2054,-1.2045,-1.2157,-1.2138,-1.215,-1.2146,-1.2228,-1.2222,-1.249,-1.2525,-1.2276,-1.2278,-1.228,0,-1.1798,-1.1858,-1.187,-1.1902,-1.1914,-1.1966,-1.1995,-1.1966,-1.1999,-1.2028,-1.2076,-1.2129,-1.217,-1.2264,-1.2264,-1.2312,-1.2296,-1.2386,-1.2303,-1.2312,-1.2301,-1.2299,-1.2306,-1.2404,-1.2407,-1.2409,-1.2411,0,-1.2012,-1.2,-1.2043,-1.2083,-1.2119,-1.215,-1.2177,-1.2206,-1.2178,-1.2218,-1.2275,-1.2307,-1.237,-1.2424,-1.2468,-1.2478,-1.2443,-1.2437,-1.2458,-1.2471,-1.2477,-1.2478,-1.2198,-1.2432,-1.243,-1.2428,-1.2427,-1.2426,-1.2171,-1.2222,-1.2239,-1.2289,-1.2305,-1.2331,-1.2379,-1.2377,-1.2423,-1.2471,-1.2451,-1.2517,-1.2539,-1.2594,-1.261,-1.2663,-1.2629,-1.266,-1.2668,-1.2677,-1.2689,-1.2465,-1.267,-1.267,-1.2669,-1.2669,-1.2668,0,-1.2385,-1.2392,-1.2438,-1.2476,-1.2516,-1.2474,-1.2501,-1.2538,-1.2597,-1.2619,-1.2659,-1.2726,-1.2777,-1.278,-1.2829,-1.2872,-1.2856,-1.2886,-1.2884,-1.2888,-1.2715,-1.2692,-1.2898,-1.2898,-1.2897,-1.2897,-1.2897,-1.2897,-1.2501,-1.2586,-1.2576,-1.267,-1.2677,-1.274,-1.276,-1.2785,-1.2802,-1.2878,-1.292,-1.292,-1.2935,-1.2985,-1.3031,-1.3031,-1.3053,-1.309,-1.3084,-1.2923,-1.29,-1.2878,-1.2858,-1.3094,-1.3094,-1.3253,-1.3255,-1.3256]},{"header":{"parameterUnit":"m.s-1","parameterCategory":1,"la1":30.2991,"la2":30.254,"lo1":-89.0895,"lo2":-89.0444,"dy":0.0017,"dx":0.0017,"nx":28,"ny":28,"refTime":"2025-01-16T09:00:00:Z","depth":0,"parameterNumber":3,"parameterNumberName":"V-component_of_WINDS"},"data":[0,0,0,0,0,0,0,0,0,0,0,0,0,0,0,0,0,0,0,0,0,0,0,0,0,0,0,0,0,0,0,0,0,0,0,0,0,0,0,0,0,0,0,0,0,0,0,0,0,0,0,0,0,0,0,0,0,0,-2.5971,-2.597,0,-2.5848,-2.5847,-2.5845,-2.5659,-2.5656,-2.5653,-2.5649,-2.5525,-2.5525,-2.5525,0,0,0,0,0,0,0,0,0,0,0,0,0,-2.6047,-2.6046,-2.5971,-2.597,-2.5968,-2.5848,-2.5847,-2.5845,-2.566,-2.5656,-2.5652,-2.5648,-2.5525,-2.5525,-2.5525,0,0,0,0,0,0,0,0,0,0,0,0,0,-2.5978,-2.6046,-2.5972,-2.5861,-2.585,-2.5849,-2.5847,-2.5844,-2.5661,-2.5656,-2.5651,-2.5646,-2.5526,-2.5525,-2.5525,-2.5622,0,0,-2.5524,-2.5524,0,0,0,0,0,0,0,0,-2.5982,-2.5976,-2.5879,-2.5869,-2.5856,-2.5764,-2.5827,-2.577,-2.5662,-2.5733,-2.5649,-2.5644,-2.5609,-2.5601,-2.5589,-2.5616,-2.5611,-2.5524,-2.5524,-2.5523,-2.5523,0,0,0,0,0,0,0,-2.5987,-2.598,-2.5922,-2.5878,-2.5864,-2.5818,-2.5803,-2.5816,-2.57,-2.5726,-2.5712,-2.57,-2.5602,-2.559,-2.5585,-2.5609,-2.5524,-2.5524,-2.5523,-2.5523,-2.5708,-2.5713,0,0,0,0,0,0,-2.6008,-2.5985,-2.5926,-2.5919,-2.5908,-2.5821,-2.5804,-2.5799,-2.5699,-2.568,-2.5705,-2.5692,-2.5593,-2.5586,-2.558,-2.5687,-2.5523,-2.5523,-2.5523,-2.5703,-2.5709,-2.5715,0,0,0,0,0,0,-2.601,-2.6005,-2.5931,-2.5948,-2.5935,-2.5825,-2.5821,-2.5799,-2.5787,-2.5683,-2.5662,-2.5714,-2.5589,-2.558,-2.5612,-2.568,-2.5523,-2.5523,-2.5697,-2.5705,-2.5712,-2.5902,0,0,0,0,0,0,-2.6013,-2.6007,-2.6042,-2.595,-2.5935,-2.5967,-2.5825,-2.58,-2.5787,-2.5769,-2.5686,-2.5668,-2.5584,-2.5614,-2.5612,-2.5677,-2.5522,-2.5691,-2.5701,-2.571,-2.589,-2.5916,-2.5938,0,0,0,0,0,-2.6017,-2.6101,-2.6045,-2.6039,-2.5977,-2.5971,-2.5962,-2.5864,-2.5793,-2.5828,-2.5761,-2.567,-2.5673,-2.5619,-2.5615,-2.5681,-2.5686,-2.5698,-2.5709,-2.5879,-2.5911,-2.5937,0,0,0,0,0,0,-2.6206,-2.6087,-2.6024,-2.6081,-2.6037,-2.594,-2.5981,-2.5901,-2.5877,-2.5862,-2.5741,-2.5724,-2.5772,-2.5729,-2.5671,-2.5769,-2.5665,-2.5677,-2.5796,-2.5825,-2.5849,-2.5859,-2.5522,0,0,0,0,0,-2.6254,-2.6258,-2.6154,-2.6215,-2.6196,-2.6093,-2.6086,-2.6014,-2.5964,-2.5945,-2.5881,-2.5836,-2.5826,-2.5823,-2.5808,-2.5882,-2.5861,-2.5925,-2.5949,-2.5969,-2.5981,-2.6017,-2.6044,-2.5753,-2.5753,-2.5752,0,0,-2.6354,-2.6289,-2.63,-2.6251,-2.6209,-2.6216,-2.6079,-2.6092,-2.6097,-2.5947,-2.5974,-2.5925,-2.5867,-2.5921,-2.5941,-2.5886,-2.6056,-2.5984,-2.6001,-2.6001,-2.6031,-2.6059,-2.6084,-2.5761,-2.5759,-2.5758,0,0,-2.6539,-2.6491,-2.6536,-2.6496,-2.6433,-2.6364,-2.6375,-2.6289,-2.6251,-2.6275,-2.6163,-2.6166,-2.6152,-2.6115,-2.6095,-2.6266,-2.6182,-2.6264,-2.6391,-2.6427,-2.645,-2.647,-2.6532,-2.6555,-2.6276,-2.6276,-2.6277,0,-2.6672,-2.6678,-2.657,-2.659,-2.6573,-2.6436,-2.6481,-2.6448,-2.6384,-2.6375,-2.6314,-2.6293,-2.6245,-2.6288,-2.6329,-2.6317,-2.6326,-2.6274,-2.6456,-2.6474,-2.6491,-2.6549,-2.6572,-2.6287,-2.6286,-2.6285,-2.6284,0,-2.6845,-2.6851,-2.6895,-2.6836,-2.6822,-2.6856,-2.6752,-2.6752,-2.668,-2.6618,-2.6644,-2.658,-2.6551,-2.6555,-2.6486,-2.6588,-2.6556,-2.6477,-2.6371,-2.6531,-2.6583,-2.6604,-2.6302,-2.6298,-2.6295,-2.6293,0,0,-2.7148,-2.7028,-2.7046,-2.7017,-2.6937,-2.694,-2.6966,-2.6936,-2.6939,-2.6899,-2.6918,-2.6909,-2.6835,-2.6812,-2.6737,-2.6769,-2.6909,-2.6685,-2.6682,-2.673,-2.7018,-2.708,-2.7107,-2.6851,-2.6855,-2.6858,-2.7023,0,-2.7319,-2.7358,-2.726,-2.7323,-2.7328,-2.7197,-2.722,-2.7174,-2.7115,-2.711,-2.7045,-2.7041,-2.6943,-2.6928,-2.6954,-2.6887,-2.6965,-2.6873,-2.6869,-2.6871,-2.689,-2.7134,-2.7198,-2.7358,-2.7043,-2.7046,-2.7049,0,-2.7525,-2.7495,-2.7559,-2.7474,-2.7472,-2.7495,-2.7459,-2.7456,-2.74,-2.7355,-2.7329,-2.7241,-2.7261,-2.7158,-2.7184,-2.7123,-2.7115,-2.7082,-2.7086,-2.7083,-2.6971,-2.7139,-2.7406,-2.7431,-2.7079,-2.7077,-2.7075,0,-2.7742,-2.7717,-2.7751,-2.7731,-2.7633,-2.7652,-2.7612,-2.7551,-2.7539,-2.7508,-2.7499,-2.7471,-2.7456,-2.7436,-2.7343,-2.7276,-2.738,-2.7269,-2.7344,-2.7347,-2.7374,-2.7374,-2.7645,-2.7367,-2.7366,-2.7366,-2.7365,0,-2.7944,-2.7988,-2.7847,-2.7869,-2.7915,-2.7802,-2.785,-2.7797,-2.7744,-2.7753,-2.7638,-2.7649,-2.7524,-2.7521,-2.7448,-2.7481,-2.7475,-2.7439,-2.742,-2.7451,-2.7456,-2.7446,-2.7433,-2.7372,-2.7371,-2.7369,-2.7368,0,-2.8195,-2.8102,-2.8131,-2.8036,-2.8013,-2.8051,-2.7969,-2.7985,-2.7918,-2.7931,-2.7928,-2.7823,-2.7814,-2.7718,-2.7688,-2.7638,-2.7701,-2.7659,-2.772,-2.7707,-2.7788,-2.7783,-2.8064,-2.8096,-2.7797,-2.7799,-2.7802,0,-2.8331,-2.8362,-2.827,-2.8267,-2.8233,-2.823,-2.8217,-2.8106,-2.8098,-2.8036,-2.806,-2.8041,-2.802,-2.8011,-2.7933,-2.7909,-2.7867,-2.7967,-2.7863,-2.7893,-2.787,-2.787,-2.7873,-2.799,-2.7994,-2.7997,-2.8,0,-2.8584,-2.8536,-2.8521,-2.8491,-2.8478,-2.8449,-2.8412,-2.8417,-2.8295,-2.8291,-2.8279,-2.8263,-2.8232,-2.8215,-2.8177,-2.8135,-2.8048,-2.8032,-2.8049,-2.8082,-2.8117,-2.8101,-2.7782,-2.8027,-2.8024,-2.8022,-2.8021,-2.802,-2.8782,-2.8803,-2.8742,-2.8729,-2.869,-2.8658,-2.8668,-2.8602,-2.8591,-2.8557,-2.8491,-2.8491,-2.8433,-2.8372,-2.8338,-2.8335,-2.8284,-2.8307,-2.8313,-2.8322,-2.8339,-2.8116,-2.8328,-2.8327,-2.8326,-2.8325,-2.8325,0,-2.9029,-2.8983,-2.8972,-2.8925,-2.8915,-2.8831,-2.8786,-2.8784,-2.8785,-2.8738,-2.8719,-2.8706,-2.8689,-2.8609,-2.8582,-2.8596,-2.8555,-2.8593,-2.8592,-2.8584,-2.8386,-2.8375,-2.8626,-2.8626,-2.8626,-2.8626,-2.8626,-2.8626,-2.9157,-2.9189,-2.9134,-2.9146,-2.9098,-2.9096,-2.9077,-2.9048,-2.9009,-2.9,-2.8985,-2.8932,-2.8872,-2.884,-2.882,-2.8797,-2.8794,-2.8845,-2.8809,-2.8627,-2.8598,-2.857,-2.8559,-2.8845,-2.8845,-2.9007,-2.9009,-2.901]}]]